Regional Weather Roundup
Issued by NWS Sterling, VA

Home | Current Version | Previous Version | Graphics & Text | Print | Product List | Glossary On
Versions: 1 2 3 4 5 6 7 8 9 10 11 12 13 14 15 16 17 18 19 20 21 22 23 24 25 26 27 28 29 30 31 32 33 34 35 36 37 38 39 40 41 42 43 44 45 46 47 48 49 50
000
ASUS41 KLWX 280210
RWRLWX

REGIONAL WEATHER ROUNDUP
NATIONAL WEATHER SERVICE BALTIMORE MD/WASHINGTON DC
1000 PM EDT WED MAY 27 2015

Note: "FAIR" indicates few or no clouds below 12,000 feet
with no significant weather and/or obstructions to visibility.
 TC=TEMPERATURE CELSIUS

 * =Non NWS site. Station does not report precipitation (e.g. rain,
    snow, etc.), thunder, or fog.

DCZ001-MDZ009-015-VAZ040>042-051-053>054-280300-
WASHINGTON METRO

CITY           SKY/WX    TMP DP  RH WIND       PRES   REMARKS
WASHINGTON NAT MOCLDY    80  68  66 CALM      30.14R
DULLES         PTCLDY    71  69  93 CALM      30.14R
ANDREWS AFB    CLOUDY    74  68  82 SE3       30.14R
FT BELVOIR     MOCLDY    75  69  81 E1        30.14R
QUANTICO       MOCLDY    79  70  74 SW7       30.14R
LEESBURG*      PTCLDY    73  72  94 CALM      30.15R
MANASSAS*      CLEAR     72  70  94 CALM      30.14R
GAITHERSBURG*  CLEAR     70  66  88 E3        30.19R

$$

MDZ006>007-011-014-280300-
BALTIMORE METRO

CITY           SKY/WX    TMP DP  RH WIND       PRES   REMARKS
BWI AIRPORT    MOCLDY    75  68  78 S7        30.14R
MD SCIENCE CTR   N/A     75  69  81 MISG      30.15R
MARTIN STATE   MOCLDY    75  72  88 SE7       30.16R
ANNAPOLIS      MOCLDY    74  68  81 SE9       30.15R

$$

MDZ012-015-019>023-280300-
MARYLAND EASTERN SHORE

CITY           SKY/WX    TMP DP  RH WIND       PRES   REMARKS
OCEAN CITY     CLEAR     69  63  81 SW15G24   30.21R
SALISBURY      CLEAR     70  64  81 S9        30.19R

$$

MDZ017>025-280300-
SOUTHERN MARYLAND

CITY           SKY/WX    TMP DP  RH WIND       PRES   REMARKS
PATUXENT RIVER MOCLDY    75  69  81 S7        30.15R
ST INIGOES     MOCLDY    74  69  85 S9        30.14R
LEONARDTOWN*   NOT AVBL

$$

MDZ003>005-280300-
NORTH CENTRAL MARYLAND

CITY           SKY/WX    TMP DP  RH WIND       PRES   REMARKS
FREDERICK*     NOT AVBL
HAGERSTOWN APT CLEAR     75  67  76 SE7       30.13R
WESTMINSTER*   NOT AVBL

$$

MDZ501>502-280300-
WESTERN MARYLAND

CITY           SKY/WX    TMP DP  RH WIND       PRES   REMARKS
OAKLAND*       NOT AVBL
CUMBERLAND*    NOT AVBL

$$

VAZ025>031-280300-
SHENANDOAH VALLEY

CITY           SKY/WX    TMP DP  RH WIND       PRES   REMARKS
WINCHESTER*    CLEAR     72  64  78 CALM      30.13R
FRONT ROYAL*   FAIR      72  68  88 CALM      30.12R
LURAY*         FAIR      72  70  94 CALM      30.14R
NEW MARKET*    FAIR      70  65  85 CALM      30.12R
STAUNTON*      PTCLDY    73  64  73 CALM      30.19R
WAYNESBORO*    FAIR      71  63  76 S6        30.19R

$$

WVZ021-048>050-054>055-280300-
EASTERN WEST VIRGINIA PANHANDLE

CITY           SKY/WX    TMP DP  RH WIND       PRES   REMARKS
MARTINSBURG    CLEAR     70  67  90 E3        30.13R
PETERSBURG*    CLEAR     69  61  74 NW3       30.15R

$$

VAZ036>039-050-280300-
CENTRAL FOOTHILLS

CITY           SKY/WX    TMP DP  RH WIND       PRES   REMARKS
CHARLOTTESVILL PTCLDY    73  63  70 S6        30.15R
CULPEPER*      PTCLDY    69  67  94 CALM      30.15R
ORANGE*        PTCLDY    72  66  83 CALM      30.17R
GORDONSVILLE*  FAIR      70  66  86 CALM      30.15R
WARRENTON*     FAIR      71  69  95 CALM      30.14R

$$

VAZ055>057-280300-
NORTH AND CENTRAL PIEDMONT

CITY           SKY/WX    TMP DP  RH WIND       PRES   REMARKS
FREDERICKSBRG* MOCLDY    81  70  69 S5        30.13R
STAFFORD*      MOCLDY    73  67  82 CALM      30.18R

$$

NCZ024-NYZ072-PAZ021-071-VAZ022-071-280300-
OTHER REGIONAL OBSERVATIONS

CITY           SKY/WX    TMP DP  RH WIND       PRES   REMARKS
NEW YORK CITY  CLOUDY    72  68  87 W6        30.17S
PHILADELPHIA   MOCLDY    74  70  87 S6        30.16R
PITTSBURGH     MOCLDY    74  62  66 S6        30.10R
ROANOKE        CLEAR     75  63  66 S3        30.20R
RICHMOND       MOCLDY    78  69  73 S14G20    30.16R
RALEIGH        CLOUDY    73  70  90 S5        30.21S

$$

ANZ530>537-280300-
MARINE OBSERVATIONS

STATION/POSITION TIME  TEMP    WIND        PRES
                       AIR SEA DIR/SP/G
                 (UTC) (F)     (DEG/KT/KT) (MB)
THOMAS PT LIGHT  0200   72 68  170/ 12/ 12 1021.4R
BALT KEY BRIDGE  0100   75     130/  9/ 11 1019.8R
COVE POINT       0100   72     180/ 17/ 19 1021.1F
LEWISETTA        0100   76 71              1020.6R
SOLOMONS ISLAND  0100      73                N/A
PINEY POINT      0100          180/  9/ 10   N/A

$$




USA.gov is the U.S. government's official web portal to all federal, state and local government web resources and services.